This is the latest recevied weather packets stored in our database for station/object K8WEH. If no packets are shown the sender has not sent any weather packets the latest 10 day(s).
| Time | Temp. | Humidity | Pressure | Rain* | Wind** | Luminosity | Snow |
|---|---|---|---|---|---|---|---|
| 1778011503 | 21.67° C | 57% | 1009.6 hPa | 0 mm | - | - | - |
| 1778011204 | 21.67° C | 55% | 1009.7 hPa | 0 mm | - | - | - |
| 1778010904 | 21.67° C | 57% | 1009.9 hPa | 0 mm | - | - | - |
| 1778010601 | 21.67° C | 58% | 1010 hPa | 0 mm | - | - | - |
| 1778010302 | 21.67° C | 58% | 1010.1 hPa | 0 mm | - | - | - |
| 1778010060 | 21.11° C | 59% | 1010.1 hPa | 0 mm | - | - | - |
| 1778009762 | 21.11° C | 59% | 1010.2 hPa | 0 mm | - | - | - |
| 1778009460 | 21.11° C | 58% | 1010.3 hPa | 0 mm | - | - | - |
| 1778009159 | 21.11° C | 61% | 1010.4 hPa | 0 mm | - | - | - |
| 1778008861 | 21.11° C | 61% | 1010.5 hPa | 0 mm | - | - | - |
| 1778008567 | 21.11° C | 61% | 1010.7 hPa | 0 mm | - | - | - |
| 1778008261 | 21.11° C | 62% | 1010.8 hPa | 0 mm | - | - | - |
| 1778007959 | 20.56° C | 60% | 1010.7 hPa | 0 mm | - | - | - |
| 1778007664 | 20.56° C | 60% | 1010.9 hPa | 0 mm | - | - | - |
| 1778007358 | 20.56° C | 60% | 1010.9 hPa | 0 mm | - | - | - |
| 1778007057 | 20.56° C | 60% | 1011 hPa | 0 mm | - | - | - |
| 1778006763 | 20.56° C | 60% | 1011 hPa | 0 mm | - | - | - |
| 1778006457 | 20.56° C | 62% | 1011 hPa | 0 mm | - | - | - |
| 1778006157 | 20.56° C | 61% | 1011.1 hPa | 0 mm | - | - | - |
| 1778005889 | 20.56° C | 63% | 1011.1 hPa | 0 mm | - | - | - |
| 1778005556 | 20.56° C | 60% | 1011.2 hPa | 0 mm | - | - | - |
| 1778005256 | 21.11° C | 59% | 1011.1 hPa | 0 mm | - | - | - |
| 1778004956 | 21.11° C | 60% | 1011.2 hPa | 0 mm | - | - | - |
| 1778004657 | 21.11° C | 61% | 1011.2 hPa | 0 mm | - | - | - |
| 1778004356 | 21.11° C | 62% | 1011.2 hPa | 0 mm | - | - | - |
* Rain latest hour (hover to see other rain measurements)
** Current wind speed in m/s (hover to see current wind gust speed)